QPF
0.11 0.15 0.27 0.37 0.29 0.25 0.25 0.14 0.06 0.06 0.03 0.01 0.00 0.00 0.01 0.06 0.09 0.14 0.13 0.05 0.01 0.02 0.02 0.01 0.01 0.01 0.01 0.02 0.03 0.03 0.03 0.04 0.05 0.06 0.06 0.04 0.03 0.03 0.03 0.03 0.03 0.04 0.03 0.03 0.02 0.02 0.02 0.02 0.01
0.16 0.26 0.26 0.27 0.27 0.27 0.26 0.12 0.06 0.04 0.01 0.00 0.00 0.00 0.01 0.02 0.01 0.04 0.07 0.08 0.01 0.01 0.01 0.02 0.02 0.02 0.02 0.02 0.02 0.03 0.05 0.06 0.06 0.07 0.06 0.05 0.03 0.03 0.03 0.03 0.04 0.04 0.04 0.04 0.03 0.02 0.02 0.03 0.02
0.16 0.22 0.20 0.22 0.23 0.23 0.25 0.12 0.05 0.01 0.00 0.00 0.00 0.00 0.01 0.02 0.01 0.04 0.05 0.03 0.01 0.01 0.02 0.02 0.02 0.01 0.02 0.02 0.02 0.02 0.03 0.03 0.05 0.05 0.05 0.04 0.04 0.04 0.04 0.04 0.05 0.07 0.07 0.07 0.06 0.05 0.04 0.04 0.03
0.19 0.21 0.17 0.19 0.19 0.11 0.09 0.05 0.01 0.02 0.01 0.00 0.00 0.01 0.01 0.01 0.01 0.02 0.01 0.01 0.01 0.01 0.01 0.00 0.01 0.01 0.01 0.01 0.02 0.03 0.02 0.02 0.03 0.03 0.04 0.04 0.04 0.05 0.05 0.05 0.06 0.08 0.10 0.10 0.09 0.07 0.06 0.06 0.04
0.24 0.22 0.21 0.17 0.15 0.06 0.02 0.02 0.00 0.01 0.01 0.00 0.00 0.02 0.03 0.02 0.00 0.00 0.00 0.01 0.01 0.01 0.00 0.00 0.01 0.01 0.01 0.01 0.01 0.02 0.02 0.02 0.02 0.02 0.03 0.04 0.04 0.06 0.06 0.06 0.07 0.09 0.11 0.12 0.11 0.11 0.09 0.07 0.06
0.27 0.24 0.23 0.21 0.16 0.06 0.02 0.01 0.01 0.01 0.01 0.00 0.00 0.02 0.02 0.02 0.00 0.01 0.00 0.00 0.00 0.00 0.00 0.00 0.00 0.00 0.00 0.00 0.00 0.01 0.01 0.01 0.02 0.02 0.01 0.03 0.04 0.04 0.05 0.05 0.07 0.08 0.11 0.14 0.12 0.12 0.09 0.08 0.08
0.33 0.33 0.25 0.18 0.15 0.09 0.03 0.01 0.01 0.02 0.01 0.00 0.00 0.01 0.02 0.01 0.00 0.00 0.00 0.00 0.00 0.00 0.00 0.00 0.00 0.00 0.00 0.00 0.00 0.00 0.00 0.00 0.01 0.01 0.01 0.02 0.03 0.02 0.03 0.04 0.06 0.08 0.10 0.13 0.13 0.11 0.10 0.09 0.09
0.30 0.35 0.22 0.16 0.15 0.11 0.04 0.01 0.01 0.01 0.01 0.01 0.00 0.02 0.02 0.01 0.00 0.00 0.00 0.00 0.00 0.00 0.00 0.00 0.00 0.00 0.00 0.00 0.00 0.00 0.00 0.00 0.00 0.00 0.00 0.01 0.01 0.01 0.02 0.03 0.04 0.06 0.09 0.10 0.11 0.11 0.11 0.10 0.09
0.26 0.35 0.27 0.19 0.16 0.10 0.04 0.02 0.01 0.00 0.01 0.01 0.01 0.01 0.00 0.00 0.00 0.01 0.01 0.00 0.00 0.00 0.00 0.00 0.00 0.00 0.00 0.00 0.00 0.00 0.00 0.00 0.00 0.00 0.01 0.01 0.01 0.01 0.02 0.03 0.04 0.06 0.08 0.09 0.11 0.15 0.17 0.16 0.11
0.30 0.28 0.18 0.14 0.13 0.09 0.04 0.02 0.02 0.01 0.02 0.01 0.01 0.00 0.00 0.00 0.00 0.00 0.00 0.00 0.00 0.00 0.00 0.00 0.00 0.00 0.00 0.00 0.00 0.00 0.00 0.00 0.00 0.00 0.00 0.00 0.01 0.01 0.01 0.02 0.03 0.05 0.06 0.09 0.12 0.15 0.18 0.16 0.10
0.19 0.18 0.10 0.06 0.05 0.04 0.03 0.01 0.01 0.02 0.02 0.01 0.01 0.00 0.00 0.00 0.00 0.00 0.00 0.00 0.00 0.00 0.00 0.00 0.00 0.00 0.00 0.00 0.00 0.00 0.00 0.00 0.00 0.00 0.00 0.00 0.00 0.00 0.01 0.02 0.04 0.05 0.06 0.08 0.12 0.14 0.17 0.16 0.13
0.13 0.11 0.07 0.04 0.02 0.01 0.01 0.01 0.01 0.02 0.03 0.02 0.02 0.01 0.00 0.00 0.00 0.00 0.00 0.00 0.00 0.00 0.00 0.00 0.00 0.00 0.00 0.00 0.00 0.00 0.00 0.00 0.00 0.00 0.00 0.00 0.00 0.00 0.01 0.02 0.03 0.06 0.08 0.09 0.09 0.13 0.18 0.18 0.15
0.13 0.09 0.06 0.03 0.01 0.00 0.00 0.01 0.01 0.01 0.01 0.01 0.01 0.01 0.00 0.00 0.00 0.00 0.00 0.00 0.00 0.00 0.00 0.00 0.00 0.00 0.00 0.00 0.00 0.00 0.00 0.00 0.00 0.00 0.00 0.00 0.01 0.00 0.01 0.01 0.02 0.03 0.06 0.08 0.08 0.08 0.12 0.16 0.17
0.10 0.07 0.04 0.02 0.01 0.00 0.00 0.01 0.01 0.01 0.01 0.00 0.01 0.01 0.00 0.00 0.00 0.00 0.00 0.00 0.00 0.00 0.00 0.00 0.00 0.00 0.00 0.00 0.00 0.00 0.00 0.00 0.00 0.00 0.00 0.00 0.00 0.01 0.02 0.02 0.04 0.04 0.04 0.05 0.06 0.06 0.10 0.12 0.14
0.08 0.06 0.05 0.02 0.01 0.00 0.01 0.04 0.02 0.02 0.01 0.01 0.01 0.00 0.00 0.00 0.00 0.00 0.00 0.00 0.00 0.00 0.00 0.00 0.00 0.00 0.00 0.00 0.00 0.00 0.00 0.00 0.00 0.01 0.01 0.00 0.01 0.01 0.01 0.02 0.04 0.04 0.03 0.04 0.05 0.06 0.07 0.09 0.11
0.08 0.07 0.09 0.03 0.01 0.00 0.04 0.07 0.02 0.03 0.01 0.01 0.00 0.00 0.00 0.00 0.00 0.00 0.00 0.00 0.00 0.00 0.00 0.00 0.00 0.00 0.00 0.00 0.00 0.00 0.00 0.00 0.01 0.01 0.01 0.00 0.01 0.01 0.02 0.03 0.04 0.05 0.04 0.04 0.05 0.06 0.07 0.09 0.12
0.10 0.08 0.08 0.08 0.04 0.01 0.01 0.02 0.01 0.01 0.01 0.00 0.00 0.00 0.00 0.00 0.00 0.00 0.00 0.00 0.00 0.00 0.00 0.00 0.00 0.00 0.00 0.00 0.00 0.00 0.00 0.00 0.01 0.01 0.01 0.00 0.01 0.01 0.02 0.05 0.05 0.05 0.06 0.05 0.05 0.06 0.08 0.10 0.12
0.06 0.04 0.05 0.05 0.04 0.01 0.00 0.00 0.01 0.00 0.00 0.00 0.00 0.00 0.00 0.00 0.00 0.00 0.00 0.00 0.00 0.00 0.00 0.00 0.00 0.00 0.00 0.00 0.00 0.00 0.00 0.00 0.00 0.00 0.00 0.00 0.01 0.02 0.03 0.05 0.05 0.06 0.07 0.07 0.06 0.07 0.06 0.08 0.09
0.06 0.03 0.03 0.04 0.02 0.00 0.00 0.00 0.00 0.00 0.00 0.00 0.00 0.00 0.00 0.01 0.01 0.00 0.00 0.00 0.00 0.00 0.00 0.00 0.00 0.00 0.00 0.00 0.00 0.00 0.00 0.00 0.00 0.00 0.00 0.00 0.00 0.01 0.03 0.05 0.05 0.07 0.08 0.08 0.07 0.06 0.07 0.07 0.07
0.05 0.03 0.03 0.06 0.03 0.00 0.00 0.00 0.00 0.00 0.00 0.00 0.00 0.00 0.00 0.00 0.00 0.00 0.00 0.00 0.00 0.00 0.00 0.00 0.00 0.00 0.00 0.00 0.00 0.00 0.00 0.00 0.00 0.00 0.00 0.00 0.00 0.00 0.01 0.04 0.06 0.07 0.09 0.09 0.08 0.08 0.07 0.07 0.07
0.02 0.02 0.05 0.06 0.02 0.00 0.00 0.00 0.00 0.00 0.00 0.00 0.00 0.00 0.00 0.00 0.00 0.00 0.00 0.00 0.00 0.00 0.00 0.00 0.00 0.00 0.00 0.00 0.00 0.00 0.00 0.00 0.00 0.00 0.00 0.00 0.00 0.00 0.00 0.01 0.03 0.05 0.07 0.09 0.09 0.09 0.08 0.08 0.09
0.02 0.03 0.02 0.02 0.02 0.01 0.00 0.00 0.00 0.00 0.00 0.00 0.00 0.00 0.00 0.00 0.00 0.00 0.00 0.00 0.00 0.00 0.00 0.00 0.00 0.00 0.00 0.00 0.00 0.00 0.00 0.00 0.00 0.00 0.00 0.00 0.00 0.00 0.00 0.00 0.01 0.02 0.04 0.06 0.08 0.08 0.09 0.11 0.11
0.04 0.03 0.01 0.01 0.01 0.01 0.00 0.00 0.00 0.00 0.00 0.00 0.00 0.00 0.00 0.00 0.00 0.00 0.00 0.00 0.00 0.00 0.00 0.00 0.00 0.00 0.00 0.00 0.00 0.00 0.00 0.00 0.00 0.00 0.00 0.00 0.00 0.00 0.00 0.00 0.00 0.02 0.03 0.04 0.05 0.06 0.07 0.07 0.09
0.02 0.00 0.00 0.00 0.00 0.00 0.00 0.00 0.00 0.00 0.00 0.00 0.00 0.00 0.00 0.00 0.00 0.00 0.00 0.00 0.00 0.00 0.00 0.00 0.00 0.00 0.00 0.00 0.00 0.00 0.00 0.00 0.00 0.00 0.00 0.00 0.00 0.00 0.00 0.00 0.00 0.00 0.02 0.02 0.03 0.05 0.05 0.04 0.04
0.00 0.01 0.03 0.04 0.02 0.01 0.00 0.00 0.00 0.00 0.00 0.00 0.00 0.00 0.00 0.00 0.00 0.00 0.00 0.00 0.00 0.00 0.00 0.00 0.00 0.00 0.00 0.00 0.00 0.00 0.00 0.00 0.00 0.00 0.00 0.00 0.00 0.00 0.00 0.00 0.00 0.00 0.00 0.01 0.02 0.03 0.04 0.03 0.03
0.00 0.01 0.05 0.08 0.05 0.02 0.00 0.00 0.00 0.00 0.00 0.00 0.00 0.00 0.00 0.00 0.00 0.00 0.00 0.00 0.00 0.00 0.00 0.00 0.00 0.00 0.00 0.00 0.00 0.00 0.00 0.00 0.00 0.00 0.00 0.00 0.00 0.00 0.00 0.00 0.00 0.00 0.00 0.00 0.01 0.02 0.03 0.04 0.03
0.00 0.00 0.00 0.00 0.00 0.00 0.00 0.00 0.00 0.00 0.00 0.00 0.00 0.00 0.00 0.00 0.00 0.00 0.00 0.00 0.00 0.00 0.00 0.00 0.00 0.00 0.00 0.00 0.00 0.00 0.00 0.00 0.00 0.00 0.00 0.00 0.00 0.00 0.00 0.00 0.00 0.00 0.00 0.00 0.01 0.01 0.02 0.03 0.03
0.00 0.00 0.00 0.00 0.00 0.00 0.00 0.00 0.00 0.00 0.00 0.00 0.00 0.00 0.00 0.00 0.00 0.00 0.00 0.00 0.00 0.00 0.00 0.00 0.00 0.00 0.00 0.00 0.00 0.00 0.00 0.00 0.00 0.00 0.00 0.00 0.00 0.00 0.00 0.00 0.00 0.00 0.00 0.00 0.00 0.00 0.01 0.01 0.01
0.00 0.00 0.00 0.00 0.00 0.00 0.00 0.00 0.00 0.00 0.00 0.00 0.00 0.00 0.00 0.00 0.00 0.00 0.00 0.00 0.00 0.00 0.00 0.00 0.00 0.00 0.00 0.00 0.00 0.00 0.00 0.00 0.00 0.00 0.00 0.00 0.00 0.00 0.00 0.00 0.00 0.00 0.00 0.00 0.00 0.00 0.00 0.00 0.00
0.00 0.00 0.00 0.00 0.00 0.00 0.00 0.00 0.00 0.00 0.00 0.00 0.00 0.00 0.00 0.00 0.00 0.00 0.00 0.00 0.00 0.00 0.00 0.00 0.00 0.00 0.00 0.00 0.00 0.00 0.00 0.00 0.00 0.00 0.00 0.00 0.00 0.00 0.00 0.00 0.00 0.00 0.00 0.00 0.00 0.00 0.00 0.00 0.00
MSLP
1009.44 1010.30 1011.29 1012.22 1012.93 1013.28 1013.18 1012.65 1011.79 1010.77 1009.80 1009.07 1008.71 1008.74 1009.12 1009.69 1010.30 1010.78 1011.01 1010.99 1010.75 1010.41 1010.09 1009.92 1009.96 1010.19 1010.55 1010.95 1011.28 1011.48 1011.52 1011.44 1011.31 1011.21 1011.19 1011.28 1011.47 1011.71 1011.94 1012.09 1012.16 1012.14 1012.08 1012.02 1012.01 1012.07 1012.21 1012.37 1012.52
1009.61 1010.60 1011.61 1012.48 1013.03 1013.15 1012.81 1012.07 1011.07 1010.00 1009.09 1008.48 1008.28 1008.49 1008.99 1009.65 1010.28 1010.72 1010.91 1010.83 1010.57 1010.24 1009.98 1009.89 1010.01 1010.32 1010.74 1011.16 1011.50 1011.69 1011.72 1011.63 1011.49 1011.37 1011.33 1011.40 1011.54 1011.73 1011.89 1011.99 1012.01 1011.96 1011.89 1011.85 1011.88 1011.98 1012.15 1012.34 1012.51
1009.87 1010.92 1011.90 1012.62 1012.95 1012.83 1012.26 1011.36 1010.27 1009.23 1008.42 1007.98 1007.96 1008.31 1008.92 1009.61 1010.21 1010.60 1010.72 1010.60 1010.34 1010.05 1009.86 1009.86 1010.07 1010.46 1010.93 1011.37 1011.71 1011.88 1011.89 1011.78 1011.63 1011.50 1011.45 1011.49 1011.59 1011.72 1011.82 1011.86 1011.83 1011.76 1011.70 1011.67 1011.73 1011.87 1012.07 1012.29 1012.47
1010.25 1011.29 1012.15 1012.67 1012.76 1012.39 1011.62 1010.60 1009.50 1008.55 1007.89 1007.64 1007.79 1008.27 1008.93 1009.61 1010.16 1010.46 1010.50 1010.34 1010.08 1009.85 1009.75 1009.85 1010.16 1010.61 1011.12 1011.56 1011.87 1012.01 1011.99 1011.86 1011.70 1011.57 1011.51 1011.54 1011.61 1011.70 1011.75 1011.74 1011.67 1011.58 1011.51 1011.51 1011.59 1011.76 1011.99 1012.23 1012.42
1010.74 1011.69 1012.37 1012.65 1012.48 1011.88 1010.95 1009.87 1008.83 1008.01 1007.55 1007.49 1007.80 1008.38 1009.06 1009.68 1010.13 1010.33 1010.29 1010.09 1009.85 1009.69 1009.68 1009.89 1010.28 1010.78 1011.28 1011.70 1011.96 1012.05 1011.99 1011.85 1011.68 1011.56 1011.51 1011.53 1011.59 1011.65 1011.66 1011.61 1011.52 1011.41 1011.35 1011.36 1011.47 1011.66 1011.91 1012.15 1012.34
1011.28 1012.09 1012.54 1012.55 1012.12 1011.32 1010.30 1009.22 1008.28 1007.65 1007.40 1007.53 1007.98 1008.61 1009.27 1009.81 1010.14 1010.23 1010.11 1009.89 1009.67 1009.58 1009.67 1009.96 1010.41 1010.92 1011.40 1011.76 1011.96 1011.98 1011.88 1011.71 1011.55 1011.45 1011.43 1011.47 1011.53 1011.57 1011.55 1011.48 1011.36 1011.24 1011.18 1011.20 1011.33 1011.54 1011.79 1012.03 1012.21
1011.79 1012.40 1012.60 1012.35 1011.69 1010.75 1009.68 1008.66 1007.88 1007.45 1007.40 1007.71 1008.27 1008.92 1009.53 1009.97 1010.17 1010.15 1009.96 1009.73 1009.55 1009.53 1009.70 1010.05 1010.52 1011.02 1011.44 1011.72 1011.83 1011.79 1011.64 1011.47 1011.32 1011.26 1011.27 1011.33 1011.40 1011.44 1011.41 1011.30 1011.17 1011.04 1010.97 1011.00 1011.14 1011.35 1011.61 1011.85 1012.02
1012.17 1012.56 1012.50 1012.02 1011.18 1010.15 1009.09 1008.18 1007.57 1007.35 1007.50 1007.96 1008.58 1009.23 1009.77 1010.10 1010.19 1010.07 1009.84 1009.60 1009.47 1009.51 1009.74 1010.13 1010.60 1011.05 1011.40 1011.59 1011.61 1011.50 1011.32 1011.14 1011.03 1011.00 1011.06 1011.15 1011.24 1011.26 1011.21 1011.09 1010.92 1010.78 1010.70 1010.73 1010.87 1011.09 1011.35 1011.59 1011.76
1012.33 1012.50 1012.22 1011.55 1010.60 1009.54 1008.54 1007.78 1007.35 1007.31 1007.62 1008.18 1008.84 1009.45 1009.91 1010.14 1010.13 1009.96 1009.71 1009.50 1009.41 1009.51 1009.79 1010.19 1010.64 1011.02 1011.28 1011.37 1011.31 1011.15 1010.95 1010.78 1010.71 1010.73 1010.82 1010.95 1011.04 1011.06 1010.98 1010.82 1010.63 1010.46 1010.37 1010.39 1010.53 1010.76 1011.02 1011.26 1011.44
1012.22 1012.21 1011.76 1010.97 1009.98 1008.94 1008.05 1007.43 1007.17 1007.28 1007.70 1008.31 1008.96 1009.52 1009.90 1010.05 1009.98 1009.78 1009.54 1009.38 1009.36 1009.51 1009.82 1010.22 1010.62 1010.93 1011.10 1011.11 1010.99 1010.79 1010.59 1010.45 1010.42 1010.48 1010.62 1010.76 1010.85 1010.85 1010.74 1010.54 1010.31 1010.11 1010.00 1010.01 1010.14 1010.37 1010.64 1010.90 1011.09
1011.86 1011.72 1011.17 1010.34 1009.36 1008.41 1007.63 1007.15 1007.02 1007.24 1007.71 1008.31 1008.92 1009.41 1009.71 1009.80 1009.71 1009.52 1009.33 1009.24 1009.29 1009.49 1009.82 1010.21 1010.56 1010.80 1010.90 1010.85 1010.69 1010.48 1010.30 1010.20 1010.21 1010.31 1010.47 1010.62 1010.70 1010.67 1010.52 1010.28 1010.01 1009.78 1009.64 1009.63 1009.76 1009.99 1010.27 1010.54 1010.76
1011.33 1011.11 1010.54 1009.74 1008.84 1007.99 1007.34 1006.98 1006.93 1007.18 1007.64 1008.19 1008.71 1009.12 1009.35 1009.41 1009.33 1009.19 1009.08 1009.07 1009.19 1009.45 1009.79 1010.16 1010.47 1010.66 1010.71 1010.63 1010.46 1010.27 1010.12 1010.06 1010.11 1010.25 1010.42 1010.56 1010.61 1010.55 1010.36 1010.08 1009.77 1009.51 1009.35 1009.32 1009.43 1009.66 1009.95 1010.25 1010.49
1010.74 1010.51 1009.98 1009.26 1008.48 1007.76 1007.22 1006.93 1006.91 1007.13 1007.51 1007.96 1008.37 1008.69 1008.87 1008.92 1008.88 1008.82 1008.80 1008.89 1009.09 1009.39 1009.75 1010.10 1010.38 1010.54 1010.57 1010.48 1010.33 1010.17 1010.07 1010.05 1010.14 1010.29 1010.45 1010.58 1010.60 1010.50 1010.28 1009.97 1009.64 1009.35 1009.16 1009.12 1009.21 1009.43 1009.73 1010.04 1010.31
1010.21 1010.03 1009.59 1009.00 1008.35 1007.76 1007.30 1007.04 1006.99 1007.11 1007.37 1007.67 1007.96 1008.19 1008.32 1008.39 1008.41 1008.44 1008.53 1008.71 1008.98 1009.32 1009.69 1010.04 1010.30 1010.45 1010.48 1010.43 1010.32 1010.21 1010.15 1010.17 1010.27 1010.42 1010.56 1010.66 1010.65 1010.52 1010.28 1009.96 1009.61 1009.31 1009.11 1009.05 1009.12 1009.32 1009.61 1009.92 1010.22
1009.84 1009.74 1009.42 1008.97 1008.46 1007.97 1007.56 1007.28 1007.14 1007.14 1007.23 1007.38 1007.53 1007.67 1007.78 1007.87 1007.97 1008.10 1008.29 1008.55 1008.88 1009.25 1009.63 1009.97 1010.24 1010.40 1010.46 1010.45 1010.40 1010.35 1010.34 1010.38 1010.48 1010.60 1010.71 1010.77 1010.73 1010.58 1010.34 1010.02 1009.69 1009.39 1009.18 1009.10 1009.15 1009.32 1009.58 1009.89 1010.20
1009.67 1009.66 1009.47 1009.15 1008.75 1008.34 1007.95 1007.61 1007.36 1007.20 1007.12 1007.10 1007.13 1007.19 1007.29 1007.43 1007.60 1007.82 1008.10 1008.43 1008.81 1009.20 1009.58 1009.92 1010.19 1010.38 1010.49 1010.55 1010.56 1010.57 1010.59 1010.64 1010.72 1010.81 1010.87 1010.88 1010.81 1010.66 1010.42 1010.13 1009.83 1009.55 1009.34 1009.24 1009.26 1009.39 1009.62 1009.91 1010.22
1009.67 1009.74 1009.66 1009.46 1009.16 1008.79 1008.39 1007.98 1007.60 1007.27 1007.02 1006.85 1006.77 1006.79 1006.89 1007.07 1007.31 1007.62 1007.98 1008.36 1008.76 1009.16 1009.53 1009.87 1010.16 1010.38 1010.56 1010.68 1010.76 1010.82 1010.87 1010.92 1010.96 1010.99 1011.00 1010.96 1010.87 1010.72 1010.51 1010.26 1010.00 1009.75 1009.55 1009.44 1009.42 1009.50 1009.68 1009.94 1010.24
1009.77 1009.91 1009.93 1009.82 1009.59 1009.24 1008.81 1008.32 1007.81 1007.33 1006.92 1006.63 1006.47 1006.45 1006.56 1006.79 1007.11 1007.49 1007.90 1008.32 1008.72 1009.11 1009.48 1009.82 1010.12 1010.39 1010.63 1010.82 1010.97 1011.08 1011.15 1011.18 1011.18 1011.15 1011.10 1011.02 1010.90 1010.76 1010.59 1010.39 1010.18 1009.97 1009.79 1009.66 1009.60 1009.63 1009.75 1009.97 1010.25
1009.87 1010.07 1010.16 1010.12 1009.95 1009.62 1009.16 1008.59 1007.96 1007.35 1006.82 1006.42 1006.20 1006.16 1006.30 1006.58 1006.96 1007.40 1007.85 1008.28 1008.69 1009.07 1009.42 1009.76 1010.08 1010.40 1010.69 1010.95 1011.16 1011.31 1011.40 1011.41 1011.37 1011.29 1011.18 1011.05 1010.93 1010.80 1010.66 1010.52 1010.36 1010.19 1010.03 1009.89 1009.79 1009.77 1009.83 1010.00 1010.25
1009.90 1010.14 1010.30 1010.33 1010.21 1009.90 1009.41 1008.77 1008.06 1007.34 1006.70 1006.23 1005.96 1005.91 1006.07 1006.39 1006.82 1007.31 1007.79 1008.24 1008.64 1009.01 1009.35 1009.68 1010.03 1010.38 1010.73 1011.05 1011.32 1011.51 1011.60 1011.61 1011.53 1011.40 1011.25 1011.10 1010.96 1010.84 1010.75 1010.65 1010.55 1010.42 1010.27 1010.12 1010.00 1009.92 1009.93 1010.05 1010.26
1009.80 1010.10 1010.33 1010.44 1010.37 1010.09 1009.59 1008.91 1008.12 1007.31 1006.60 1006.05 1005.74 1005.67 1005.84 1006.20 1006.67 1007.19 1007.70 1008.16 1008.57 1008.92 1009.26 1009.60 1009.96 1010.34 1010.74 1011.11 1011.42 1011.65 1011.76 1011.76 1011.67 1011.51 1011.33 1011.16 1011.02 1010.92 1010.86 1010.81 1010.75 1010.66 1010.53 1010.38 1010.23 1010.12 1010.08 1010.14 1010.31
1009.60 1009.97 1010.29 1010.49 1010.49 1010.25 1009.76 1009.05 1008.21 1007.32 1006.53 1005.91 1005.54 1005.45 1005.61 1005.98 1006.48 1007.03 1007.57 1008.05 1008.46 1008.82 1009.16 1009.50 1009.88 1010.29 1010.71 1011.12 1011.46 1011.72 1011.85 1011.86 1011.77 1011.61 1011.42 1011.25 1011.12 1011.04 1011.01 1010.99 1010.97 1010.91 1010.80 1010.66 1010.49 1010.35 1010.28 1010.29 1010.42
1009.35 1009.82 1010.25 1010.55 1010.64 1010.46 1009.99 1009.26 1008.36 1007.41 1006.53 1005.83 1005.39 1005.25 1005.38 1005.75 1006.26 1006.83 1007.39 1007.90 1008.33 1008.71 1009.06 1009.41 1009.80 1010.21 1010.65 1011.07 1011.44 1011.71 1011.87 1011.90 1011.82 1011.67 1011.50 1011.34 1011.23 1011.18 1011.17 1011.18 1011.19 1011.15 1011.07 1010.94 1010.78 1010.63 1010.53 1010.51 1010.60
1009.15 1009.72 1010.28 1010.69 1010.87 1010.75 1010.30 1009.56 1008.61 1007.58 1006.61 1005.82 1005.30 1005.08 1005.17 1005.50 1006.01 1006.60 1007.19 1007.73 1008.20 1008.61 1008.97 1009.33 1009.72 1010.13 1010.55 1010.97 1011.34 1011.62 1011.79 1011.84 1011.79 1011.68 1011.54 1011.41 1011.33 1011.30 1011.31 1011.35 1011.38 1011.37 1011.31 1011.20 1011.06 1010.91 1010.81 1010.77 1010.82
1009.05 1009.74 1010.40 1010.92 1011.18 1011.11 1010.68 1009.93 1008.94 1007.84 1006.78 1005.89 1005.27 1004.97 1004.99 1005.28 1005.77 1006.37 1006.98 1007.56 1008.07 1008.51 1008.90 1009.27 1009.64 1010.03 1010.43 1010.82 1011.16 1011.44 1011.61 1011.69 1011.67 1011.60 1011.51 1011.42 1011.37 1011.37 1011.41 1011.47 1011.52 1011.53 1011.50 1011.42 1011.30 1011.18 1011.08 1011.04 1011.08
1009.11 1009.88 1010.62 1011.21 1011.52 1011.48 1011.07 1010.30 1009.28 1008.13 1006.99 1006.01 1005.30 1004.91 1004.86 1005.10 1005.56 1006.15 1006.79 1007.41 1007.96 1008.44 1008.85 1009.22 1009.57 1009.93 1010.28 1010.62 1010.93 1011.18 1011.35 1011.44 1011.47 1011.44 1011.39 1011.36 1011.35 1011.38 1011.44 1011.52 1011.58 1011.62 1011.62 1011.57 1011.49 1011.41 1011.33 1011.30 1011.33
1009.30 1010.10 1010.87 1011.47 1011.80 1011.77 1011.36 1010.59 1009.56 1008.38 1007.20 1006.16 1005.38 1004.92 1004.79 1004.97 1005.40 1005.98 1006.63 1007.27 1007.85 1008.36 1008.79 1009.16 1009.50 1009.81 1010.11 1010.40 1010.65 1010.87 1011.03 1011.13 1011.19 1011.20 1011.21 1011.22 1011.26 1011.32 1011.40 1011.50 1011.58 1011.64 1011.67 1011.66 1011.62 1011.57 1011.54 1011.53 1011.56
1009.56 1010.32 1011.03 1011.60 1011.89 1011.85 1011.45 1010.70 1009.69 1008.53 1007.35 1006.30 1005.48 1004.97 1004.78 1004.91 1005.28 1005.84 1006.47 1007.12 1007.73 1008.26 1008.71 1009.08 1009.40 1009.67 1009.93 1010.16 1010.37 1010.54 1010.69 1010.80 1010.88 1010.94 1010.99 1011.05 1011.13 1011.22 1011.33 1011.44 1011.54 1011.62 1011.67 1011.70 1011.70 1011.70 1011.70 1011.72 1011.76
1009.79 1010.43 1011.03 1011.49 1011.72 1011.65 1011.26 1010.56 1009.61 1008.52 1007.41 1006.39 1005.59 1005.05 1004.82 1004.89 1005.21 1005.71 1006.31 1006.94 1007.54 1008.08 1008.54 1008.92 1009.23 1009.49 1009.72 1009.91 1010.09 1010.24 1010.38 1010.49 1010.60 1010.69 1010.79 1010.89 1011.00 1011.12 1011.25 1011.38 1011.50 1011.60 1011.67 1011.73 1011.77 1011.80 1011.84 1011.88 1011.94
1009.91 1010.37 1010.79 1011.12 1011.26 1011.16 1010.79 1010.17 1009.34 1008.37 1007.37 1006.45 1005.69 1005.16 1004.90 1004.90 1005.14 1005.56 1006.09 1006.68 1007.25 1007.79 1008.26 1008.66 1008.98 1009.25 1009.48 1009.67 1009.84 1009.99 1010.13 1010.26 1010.38 1010.50 1010.63 1010.77 1010.91 1011.06 1011.21 1011.36 1011.49 1011.60 1011.70 1011.78 1011.84 1011.90 1011.96 1012.03 1012.10
Thickness
5795 5795 5793 5780 5761 5749 5748 5766 5781 5783 5789 5802 5807 5804 5792 5782 5771 5757 5781 5794 5793 5788 5782 5777 5774 5771 5769 5766 5765 5763 5761 5760 5759 5758 5757 5756 5755 5754 5754 5754 5754 5754 5754 5754 5754 5755 5755 5756 5757
5796 5794 5785 5770 5751 5742 5749 5772 5779 5786 5796 5805 5806 5802 5791 5782 5785 5779 5783 5789 5790 5785 5779 5773 5769 5767 5764 5762 5760 5758 5756 5755 5754 5753 5752 5751 5750 5749 5749 5749 5749 5750 5751 5751 5751 5752 5752 5753 5753
5794 5791 5774 5762 5753 5748 5753 5775 5784 5794 5803 5803 5798 5798 5787 5779 5783 5780 5783 5788 5786 5781 5774 5768 5765 5762 5759 5757 5755 5753 5751 5750 5748 5748 5746 5746 5745 5745 5745 5745 5745 5746 5747 5748 5748 5748 5749 5750 5751
5788 5778 5770 5757 5755 5770 5776 5783 5792 5791 5796 5801 5797 5785 5782 5787 5785 5784 5786 5785 5781 5776 5770 5763 5760 5757 5754 5752 5750 5748 5746 5744 5743 5742 5741 5740 5740 5740 5740 5740 5741 5742 5743 5744 5745 5745 5746 5747 5748
5782 5767 5755 5754 5763 5778 5789 5793 5794 5787 5789 5795 5793 5775 5770 5783 5787 5785 5783 5782 5776 5772 5768 5761 5757 5754 5751 5748 5746 5743 5741 5739 5738 5737 5736 5736 5735 5735 5735 5736 5737 5738 5739 5740 5741 5742 5743 5744 5745
5767 5761 5747 5748 5760 5776 5788 5795 5792 5786 5787 5792 5788 5775 5769 5781 5781 5780 5780 5777 5774 5769 5765 5759 5755 5752 5749 5746 5743 5740 5738 5736 5734 5733 5732 5732 5731 5731 5731 5732 5732 5733 5735 5736 5737 5739 5740 5741 5742
5758 5753 5748 5753 5755 5766 5782 5794 5788 5782 5781 5787 5791 5773 5769 5776 5779 5779 5776 5774 5771 5767 5764 5760 5755 5751 5747 5744 5741 5738 5735 5733 5731 5730 5729 5728 5727 5727 5727 5728 5728 5729 5730 5731 5733 5734 5736 5737 5739
5766 5753 5750 5754 5752 5760 5780 5789 5791 5786 5782 5794 5793 5772 5764 5773 5779 5777 5773 5770 5767 5765 5762 5759 5756 5752 5748 5744 5740 5737 5734 5732 5730 5728 5726 5725 5725 5724 5724 5724 5724 5724 5725 5727 5728 5729 5732 5734 5736
5769 5746 5742 5748 5754 5762 5779 5781 5786 5794 5788 5788 5789 5783 5780 5780 5778 5771 5766 5764 5762 5761 5761 5759 5756 5752 5749 5745 5741 5737 5734 5731 5729 5727 5724 5723 5723 5723 5723 5722 5720 5720 5721 5722 5723 5725 5728 5730 5733
5757 5740 5746 5759 5767 5769 5776 5779 5781 5782 5776 5777 5778 5781 5781 5777 5772 5765 5761 5759 5758 5757 5758 5759 5756 5752 5749 5745 5740 5737 5734 5731 5728 5726 5723 5722 5721 5720 5720 5719 5717 5716 5717 5718 5719 5721 5724 5726 5729
5757 5749 5759 5768 5775 5776 5774 5778 5784 5776 5767 5772 5771 5772 5775 5772 5769 5765 5763 5761 5758 5758 5756 5756 5754 5752 5748 5743 5739 5736 5733 5730 5727 5724 5721 5719 5718 5716 5715 5714 5714 5713 5713 5713 5716 5717 5720 5722 5725
5754 5759 5766 5771 5777 5776 5776 5778 5777 5775 5774 5783 5782 5778 5774 5769 5767 5766 5763 5761 5759 5756 5753 5752 5751 5749 5746 5741 5737 5735 5732 5728 5724 5721 5718 5715 5713 5711 5711 5710 5709 5709 5709 5710 5712 5713 5716 5719 5722
5751 5757 5765 5772 5776 5777 5778 5776 5775 5776 5785 5788 5784 5778 5772 5770 5769 5768 5768 5764 5760 5754 5752 5750 5748 5745 5743 5739 5736 5734 5730 5725 5722 5718 5714 5712 5709 5706 5705 5705 5706 5706 5706 5707 5708 5710 5712 5714 5718
5755 5757 5762 5769 5772 5775 5772 5774 5774 5777 5786 5783 5779 5774 5773 5771 5770 5768 5765 5762 5760 5755 5752 5749 5746 5745 5742 5739 5735 5732 5728 5724 5720 5715 5712 5709 5706 5703 5701 5700 5701 5701 5702 5704 5705 5707 5709 5711 5714
5759 5752 5756 5764 5770 5775 5772 5761 5769 5779 5782 5777 5776 5774 5773 5772 5770 5767 5766 5763 5762 5757 5754 5748 5745 5743 5740 5736 5732 5730 5726 5722 5717 5713 5709 5706 5703 5701 5698 5696 5696 5697 5698 5700 5701 5703 5705 5707 5710
5749 5745 5738 5758 5768 5772 5760 5746 5771 5782 5777 5772 5774 5774 5771 5771 5771 5770 5770 5766 5764 5759 5754 5749 5746 5742 5738 5734 5730 5728 5725 5719 5715 5711 5706 5703 5700 5697 5695 5692 5692 5693 5694 5695 5696 5698 5699 5702 5705
5739 5733 5734 5741 5761 5767 5760 5752 5770 5780 5776 5772 5773 5774 5771 5770 5771 5772 5771 5766 5762 5757 5753 5749 5744 5740 5736 5732 5730 5726 5722 5717 5713 5708 5703 5699 5696 5694 5692 5689 5689 5690 5690 5691 5693 5694 5696 5697 5701
5727 5733 5735 5737 5753 5762 5760 5761 5772 5780 5779 5775 5775 5774 5772 5771 5770 5773 5771 5766 5761 5756 5752 5748 5742 5739 5735 5732 5729 5724 5720 5716 5711 5706 5701 5696 5693 5691 5689 5688 5686 5686 5686 5686 5688 5689 5692 5695 5698
5738 5736 5737 5745 5759 5760 5759 5763 5773 5780 5778 5776 5775 5774 5773 5772 5775 5774 5770 5764 5758 5753 5749 5747 5742 5738 5734 5728 5724 5719 5715 5712 5709 5704 5699 5696 5692 5690 5688 5685 5684 5683 5682 5683 5684 5686 5687 5690 5695
5737 5736 5739 5746 5758 5761 5762 5766 5778 5783 5780 5781 5779 5777 5776 5774 5773 5769 5766 5762 5756 5751 5748 5747 5743 5738 5733 5726 5724 5720 5715 5712 5708 5704 5700 5695 5691 5688 5686 5683 5682 5681 5680 5680 5681 5683 5683 5686 5691
5742 5739 5738 5737 5750 5764 5762 5759 5772 5784 5788 5786 5785 5783 5783 5778 5772 5768 5765 5760 5755 5750 5747 5746 5742 5737 5732 5728 5724 5719 5715 5710 5706 5702 5698 5695 5691 5688 5685 5682 5681 5680 5679 5678 5679 5680 5680 5680 5687
5735 5749 5750 5748 5744 5743 5754 5736 5763 5777 5776 5778 5778 5779 5779 5780 5776 5769 5765 5758 5755 5752 5750 5747 5742 5737 5732 5727 5720 5715 5709 5705 5704 5701 5698 5696 5692 5689 5685 5682 5681 5680 5679 5678 5678 5679 5680 5680 5681
5744 5756 5754 5753 5746 5743 5754 5744 5757 5772 5764 5770 5776 5777 5778 5779 5776 5770 5765 5760 5757 5754 5749 5745 5741 5735 5730 5726 5720 5715 5710 5707 5706 5703 5699 5696 5694 5690 5686 5683 5681 5680 5679 5678 5678 5678 5679 5680 5681
5758 5755 5756 5756 5747 5730 5749 5743 5746 5764 5766 5771 5776 5778 5777 5777 5775 5770 5766 5761 5755 5752 5747 5743 5738 5733 5729 5725 5721 5716 5711 5708 5705 5701 5698 5696 5694 5691 5688 5685 5682 5681 5679 5678 5677 5678 5679 5680 5681
5754 5738 5723 5720 5718 5721 5752 5749 5752 5772 5778 5777 5775 5777 5777 5776 5772 5766 5761 5756 5752 5748 5744 5741 5736 5731 5728 5724 5721 5718 5714 5711 5706 5702 5699 5696 5693 5690 5688 5686 5683 5681 5680 5679 5678 5679 5678 5679 5680
5750 5744 5717 5698 5699 5717 5744 5746 5760 5779 5781 5781 5779 5778 5777 5773 5771 5766 5761 5756 5751 5747 5744 5740 5736 5731 5728 5725 5722 5720 5716 5711 5708 5705 5702 5699 5695 5693 5690 5688 5685 5683 5681 5680 5679 5678 5679 5679 5679
5747 5746 5752 5733 5728 5725 5740 5755 5767 5776 5773 5773 5773 5773 5771 5770 5768 5765 5761 5756 5752 5747 5743 5741 5736 5733 5730 5726 5723 5721 5718 5714 5710 5707 5704 5701 5699 5696 5693 5690 5687 5685 5683 5681 5680 5678 5678 5678 5678
5756 5751 5742 5729 5712 5707 5725 5740 5741 5752 5759 5764 5765 5765 5767 5768 5766 5764 5760 5756 5753 5749 5745 5742 5739 5735 5732 5729 5725 5722 5719 5716 5711 5708 5704 5702 5700 5697 5694 5692 5690 5687 5685 5683 5680 5678 5678 5677 5677
5747 5744 5741 5735 5731 5712 5705 5726 5760 5758 5761 5761 5764 5767 5767 5766 5764 5762 5759 5757 5754 5750 5745 5742 5739 5736 5733 5730 5727 5723 5719 5716 5713 5709 5706 5703 5701 5699 5696 5693 5691 5689 5686 5684 5681 5679 5678 5677 5677
5755 5748 5741 5721 5720 5724 5713 5727 5768 5766 5766 5766 5766 5768 5769 5767 5765 5762 5759 5756 5752 5749 5745 5742 5740 5737 5734 5731 5728 5724 5721 5717 5714 5711 5708 5705 5703 5701 5698 5695 5692 5690 5687 5685 5682 5679 5678 5677 5676